DW4885 Weather Reports


time (UTC)temp
C
wind
direction
speed
KPH
gust
KPH
rain 1hr
cm
rain 24hr
cm
rain mn
cm
humidity
%
barometer
mb
20260507085004 2 212 3.2 4.8 0.00 2.13 0.00 98 1006.2
20260507084504 2 253 1.6 4.8 0.00 2.16 0.00 98 1006.1
20260507082504 3 244 0.0 1.6 0.00 2.18 0.00 98 1006.0
20260507081004 3 241 0.0 1.6 0.00 2.21 0.00 98 1006.0
20260507080504 3 241 0.0 0.0 0.00 2.21 0.00 98 1005.9
20260507080004 3 241 0.0 0.0 0.00 2.21 0.00 98 1006.0
20260507075505 3 241 0.0 0.0 0.00 2.21 0.00 98 1006.0
20260507074504 3 241 0.0 0.0 0.00 2.21 0.00 98 1006.0
20260507073504 3 241 0.0 0.0 0.00 2.21 0.00 98 1005.8
20260507073004 3 241 0.0 0.0 0.00 2.21 0.00 98 1005.8
20260507072505 3 241 0.0 0.0 0.00 2.21 0.00 98 1005.7
20260507071504 3 241 0.0 0.0 0.00 2.21 0.00 98 1005.6
20260507071005 3 241 0.0 0.0 0.00 2.21 0.00 98 1005.7
20260507070009 3 241 0.0 0.0 0.00 2.21 0.00 98 1005.8
20260507065504 3 241 0.0 0.0 0.00 2.21 0.00 98 1005.8
20260507064504 3 241 0.0 0.0 0.00 2.24 0.00 98 1005.8
20260507062504 3 25 0.0 0.0 0.00 2.26 0.00 98 1005.9
20260507062004 3 25 0.0 0.0 0.00 2.26 0.00 98 1005.8
20260507061504 3 25 0.0 0.0 0.00 2.26 0.00 98 1005.7
20260507061005 3 25 0.0 0.0 0.00 2.26 0.00 98 1005.7
20260507060004 3 24 0.0 0.0 0.00 2.26 0.00 98 1005.8
20260507055505 3 25 0.0 0.0 0.00 2.29 0.00 98 1005.7
20260507055005 3 25 0.0 0.0 0.00 2.31 0.00 98 1005.8
20260507054505 3 24 0.0 0.0 0.00 2.34 0.00 98 1006.0
20260507053005 3 25 0.0 0.0 0.00 2.39 0.00 98 1006.3
20260507052504 3 24 0.0 0.0 0.00 2.39 0.00 98 1006.3
20260507050505 3 24 0.0 0.0 0.00 2.46 0.00 98 1006.5
20260507045004 3 24 0.0 1.6 0.00 2.46 0.00 98 1006.4
20260507044504 3 335 0.0 0.0 0.00 2.49 0.00 98 1006.6
20260507044004 3 335 0.0 0.0 0.00 2.49 0.00 98 1006.7
20260507043504 3 335 0.0 0.0 0.00 2.49 0.00 98 1006.6
20260507043004 3 335 0.0 0.0 0.00 2.49 0.00 98 1006.6
20260507041503 3 335 0.0 0.0 0.00 2.54 0.00 97 1006.6
20260507040504 4 335 0.0 0.0 0.00 2.57 0.00 97 1006.7
20260507040004 4 335 0.0 4.8 0.00 2.59 0.00 98 1006.6
20260507035004 4 349 1.6 4.8 0.00 2.67 2.59 98 1006.7
20260507033504 4 350 3.2 4.8 0.00 2.74 2.59 98 1006.8
20260507032004 4 300 1.6 4.8 0.00 2.74 2.59 98 1006.7
20260507031504 4 328 0.0 3.2 0.00 2.74 2.59 98 1006.6
20260507030004 4 315 0.0 1.6 0.03 2.77 2.59 98 1006.5
20260507025004 4 303 0.0 3.2 0.05 2.79 2.59 98 1006.5
20260507024004 4 37 0.0 1.6 0.08 2.79 2.59 98 1006.4
20260507023504 4 320 1.6 4.8 0.10 2.79 2.59 98 1006.6
20260507023004 5 93 1.6 3.2 0.10 2.79 2.59 98 1006.5
20260507022004 5 346 1.6 8.0 0.13 2.79 2.59 98 1007.0
20260507021504 5 293 1.6 4.8 0.13 2.79 2.59 98 1007.0
20260507020504 5 328 0.0 1.6 0.13 2.77 2.57 98 1006.9
20260507020004 5 335 0.0 0.0 0.13 2.77 2.57 98 1006.8
20260507014504 5 345 0.0 1.6 0.15 2.74 2.54 98 1006.8
20260507012503 5 351 1.6 4.8 0.10 2.67 2.46 98 1006.7
20260507011004 5 14 1.6 4.8 0.08 2.64 2.44 98 1006.4
20260507005503 5 323 0.0 1.6 0.08 2.62 2.41 98 1006.2
20260507003504 5 359 0.0 4.8 0.08 2.59 2.39 98 1005.9
20260507002503 5 322 0.0 0.0 0.05 2.57 2.36 98 1005.7
20260506235503 5 345 0.0 3.2 0.03 2.54 2.34 97 1005.3
20260506235003 5 316 0.0 3.2 0.03 2.54 2.34 97 1005.4
20260506234504 5 337 1.6 4.8 0.03 2.54 2.34 97 1005.4
20260506233003 5 134 0.0 1.6 0.00 2.51 2.31 97 1005.5
20260506232503 5 294 0.0 3.2 0.00 2.51 2.31 97 1005.4
20260506231503 5 16 1.6 9.7 0.00 2.51 2.31 97 1005.5
20260506230003 5 11 1.6 4.8 0.00 2.51 2.31 97 1005.5
20260506225503 5 2 0.0 3.2 0.00 2.51 2.31 97 1005.3
20260506225003 5 354 1.6 8.0 0.03 2.51 2.31 97 1005.3
20260506224503 5 359 1.6 4.8 0.03 2.51 2.31 97 1005.2
20260506223503 5 347 1.6 3.2 0.03 2.51 2.31 97 1005.0
20260506223003 5 14 3.2 4.8 0.03 2.51 2.31 97 1005.3
20260506222003 5 336 1.6 8.0 0.05 2.51 2.31 97 1005.2
20260506221003 5 309 1.6 4.8 0.08 2.51 2.31 97 1005.3
20260506215503 5 54 1.6 4.8 0.10 2.51 2.31 97 1005.1
20260506214503 5 338 0.0 1.6 0.13 2.49 2.29 97 1005.1
20260506213503 5 332 1.6 4.8 0.15 2.49 2.29 97 1005.2
20260506212004 5 351 3.2 4.8 0.18 2.46 2.26 97 1005.2
20260506211003 5 336 1.6 4.8 0.20 2.46 2.24 97 1005.2
20260506210003 5 2 1.6 4.8 0.18 2.54 2.21 97 1005.1
20260506205003 5 343 0.0 3.2 0.15 2.51 2.18 97 1005.1
20260506204503 5 327 1.6 4.8 0.15 2.49 2.16 97 1005.0
20260506202503 5 264 0.0 4.8 0.08 2.41 2.08 97 1004.6
20260506202003 5 351 1.6 4.8 0.10 2.41 2.08 97 1004.5
20260506201503 5 107 1.6 4.8 0.08 2.39 2.06 97 1004.4
20260506201003 5 319 1.6 3.2 0.05 2.39 2.03 97 1004.5
20260506200503 5 19 3.2 4.8 0.05 2.39 2.03 97 1004.5
20260506195503 5 348 3.2 8.0 0.05 2.39 2.03 97 1004.5
20260506195004 5 4 1.6 4.8 0.05 2.39 2.03 97 1004.5
20260506194503 5 340 1.6 8.0 0.03 2.44 2.01 97 1004.6
20260506194003 5 315 0.0 4.8 0.03 2.51 2.01 97 1004.6
20260506192504 5 319 0.0 3.2 0.05 2.57 2.01 97 1004.6
20260506185503 5 343 1.6 4.8 0.10 2.54 1.98 97 1005.0
20260506184503 5 328 1.6 4.8 0.15 2.54 1.98 97 1005.1
20260506184003 5 8 1.6 4.8 0.18 2.54 1.98 97 1005.2
20260506181503 5 300 1.6 4.8 0.28 2.49 1.93 97 1005.1
20260506180504 5 316 1.6 4.8 0.33 2.49 1.93 97 1005.5
20260506180004 5 306 0.0 1.6 0.38 2.46 1.91 97 1005.6
20260506174503 5 45 0.0 1.6 0.38 2.39 1.83 97 1005.5
20260506173503 5 327 1.6 4.8 0.41 2.34 1.78 97 1006.0
20260506172004 5 4 1.6 4.8 0.38 2.24 1.68 97 1005.3
20260506171004 5 324 1.6 4.8 0.36 2.18 1.63 97 1005.5
20260506170003 5 301 1.6 8.0 0.28 2.08 1.52 97 1005.6
20260506165004 5 316 3.2 4.8 0.28 2.03 1.47 97 1005.5
20260506163503 5 317 4.8 9.7 0.20 1.93 1.37 97 1005.8
20260506163004 5 66 1.6 3.2 0.20 1.91 1.35 97 1005.1
20260506160503 5 335 1.6 4.8 0.15 1.80 1.24 97 1005.3
20260506154003 5 355 3.2 8.0 0.10 1.73 1.17 96 1005.6
20260506152503 5 302 3.2 4.8 0.08 1.68 1.12 96 1006.0
20260506152003 5 321 1.6 4.8 0.10 1.68 1.12 96 1006.1
20260506150003 5 332 0.0 4.8 0.15 1.65 1.09 96 1005.7
20260506143503 5 317 1.6 4.8 0.20 1.63 1.07 96 1005.8
20260506143003 5 12 1.6 4.8 0.18 1.60 1.04 96 1005.9
20260506142503 5 89 0.0 3.2 0.18 1.60 1.04 96 1005.8
20260506141003 5 1 1.6 8.0 0.15 1.55 0.99 96 1006.3
20260506140504 5 322 0.0 1.6 0.15 1.52 0.97 96 1006.2
20260506135503 5 22 1.6 4.8 0.15 1.50 0.94 96 1006.3
20260506135003 5 27 0.0 3.2 0.15 1.47 0.91 96 1006.2
20260506134503 5 80 1.6 4.8 0.15 1.45 0.89 96 1005.8
20260506134003 5 310 0.0 0.0 0.18 1.45 0.89 96 1006.3
20260506133504 5 283 1.6 8.0 0.18 1.42 0.86 96 1006.5
20260506133004 5 334 1.6 3.2 0.20 1.42 0.86 96 1006.1
20260506132503 5 347 1.6 4.8 0.23 1.42 0.86 96 1006.0
20260506132005 5 124 0.0 3.2 0.20 1.40 0.84 96 1006.0
20260506131503 5 83 0.0 4.8 0.23 1.40 0.84 96 1006.0
20260506125004 5 69 0.0 1.6 0.20 1.32 0.76 97 1006.9
20260506123503 5 280 1.6 3.2 0.13 1.24 0.69 96 1007.2
20260506123004 5 316 1.6 4.8 0.10 1.22 0.66 96 1007.3
20260506115004 6 325 1.6 3.2 0.05 1.12 0.56 97 1006.5
20260506114003 6 0 0.0 1.6 0.05 1.12 0.56 97 1006.3
20260506113504 6 346 1.6 3.2 0.05 1.12 0.56 97 1006.5
20260506113004 6 304 0.0 0.0 0.05 1.12 0.56 97 1006.4
20260506112004 6 304 0.0 1.6 0.03 1.09 0.53 97 1006.3
20260506111504 6 304 0.0 3.2 0.03 1.09 0.53 97 1006.2
20260506111004 6 93 0.0 1.6 0.03 1.09 0.53 97 1006.2
20260506110503 6 301 1.6 3.2 0.03 1.09 0.53 97 1006.4
20260506105503 6 259 0.0 1.6 0.03 1.07 0.51 97 1006.3
20260506105004 6 68 0.0 3.2 0.03 1.07 0.51 97 1006.3
20260506104503 6 75 0.0 4.8 0.03 1.07 0.51 97 1006.6
20260506104004 6 314 1.6 4.8 0.03 1.07 0.51 97 1006.9
20260506103504 6 141 0.0 0.0 0.03 1.07 0.51 97 1006.4
20260506103003 6 138 1.6 3.2 0.03 1.07 0.51 97 1006.5
20260506102004 7 96 0.0 3.2 0.03 1.07 0.51 97 1006.7
20260506101503 7 96 0.0 0.0 0.03 1.07 0.51 97 1006.8
20260506100504 7 312 0.0 0.0 0.03 1.07 0.51 97 1006.9
20260506095504 7 312 0.0 0.0 0.03 1.04 0.48 97 1006.9
20260506094504 7 42 0.0 0.0 0.03 1.04 0.48 97 1006.5